TimeEDT,TemperatureF,Dew PointF,Humidity,Sea Level PressureIn,VisibilityMPH,Wind Direction,Wind SpeedMPH,Gust SpeedMPH,PrecipitationIn,Events,Conditions,WindDirDegrees,DateUTC
12:15 AM,62.8,60.4,92,29.95,10.0,ENE,5.8,-,N/A,,Overcast,70,2013-05-06 04:15:00
12:35 AM,62.8,60.4,92,29.94,10.0,ENE,5.8,-,N/A,,Overcast,70,2013-05-06 04:35:00
1:15 AM,61.9,60.1,94,29.94,10.0,ENE,4.6,-,N/A,,Overcast,70,2013-05-06 05:15:00
1:35 AM,61.7,60.1,94,29.93,10.0,ENE,5.8,-,N/A,,Overcast,70,2013-05-06 05:35:00
1:55 AM,61.2,59.9,96,29.93,7.0,ENE,4.6,-,N/A,,Mostly Cloudy,70,2013-05-06 05:55:00
2:15 AM,61.0,59.9,96,29.92,7.0,ENE,3.5,-,N/A,,Mostly Cloudy,70,2013-05-06 06:15:00
2:35 AM,61.2,59.9,96,29.92,7.0,East,5.8,-,N/A,,Overcast,90,2013-05-06 06:35:00
2:55 AM,61.0,60.1,97,29.91,7.0,ENE,3.5,-,N/A,,Overcast,70,2013-05-06 06:55:00
3:15 AM,61.2,60.3,97,29.91,7.0,East,3.5,-,N/A,,Drizzle,80,2013-05-06 07:15:00
3:35 AM,61.2,60.3,97,29.91,7.0,ENE,3.5,-,N/A,Rain,Rain,70,2013-05-06 07:35:00
3:55 AM,61.0,60.3,97,29.91,7.0,Calm,Calm,-,N/A,,Overcast,0,2013-05-06 07:55:00
4:15 AM,61.0,60.4,98,29.90,7.0,Calm,Calm,-,N/A,,Overcast,0,2013-05-06 08:15:00
4:35 AM,61.0,60.8,99,29.89,7.0,ENE,3.5,-,N/A,,Overcast,70,2013-05-06 08:35:00
4:55 AM,61.0,60.8,99,29.89,7.0,East,4.6,-,N/A,,Overcast,80,2013-05-06 08:55:00
5:15 AM,61.0,60.8,99,29.89,7.0,Calm,Calm,-,N/A,,Overcast,0,2013-05-06 09:15:00
5:35 AM,61.0,60.8,99,29.89,7.0,East,4.6,-,N/A,,Overcast,80,2013-05-06 09:35:00
5:55 AM,61.0,60.8,99,29.89,7.0,ENE,3.5,-,N/A,,Overcast,70,2013-05-06 09:55:00
6:15 AM,61.0,60.8,99,29.88,7.0,ENE,3.5,-,N/A,,Overcast,60,2013-05-06 10:15:00
6:35 AM,60.8,60.8,100,29.89,7.0,ENE,4.6,-,N/A,,Mostly Cloudy,70,2013-05-06 10:35:00
6:55 AM,60.8,60.8,100,29.89,5.0,East,3.5,-,N/A,,Mostly Cloudy,80,2013-05-06 10:55:00
7:15 AM,61.0,61.0,100,29.89,5.0,Calm,Calm,-,N/A,,Scattered Clouds,0,2013-05-06 11:15:00
7:35 AM,61.2,61.2,100,29.91,7.0,Calm,Calm,-,N/A,,Mostly Cloudy,0,2013-05-06 11:35:00
7:55 AM,61.7,61.7,100,29.91,7.0,East,3.5,-,N/A,,Overcast,90,2013-05-06 11:55:00
8:15 AM,62.8,62.8,100,29.91,7.0,East,4.6,-,N/A,,Overcast,90,2013-05-06 12:15:00
8:35 AM,62.8,62.1,97,29.90,7.0,East,5.8,-,N/A,,Overcast,80,2013-05-06 12:35:00
8:55 AM,64.2,62.1,93,29.89,10.0,East,8.1,-,N/A,,Overcast,100,2013-05-06 12:55:00
9:15 AM,66.2,62.2,87,29.89,10.0,East,5.8,-,0.01,,Overcast,90,2013-05-06 13:15:00
9:35 AM,64.8,62.4,92,29.89,3.0,East,5.8,-,0.05,Rain,Light Rain,100,2013-05-06 13:35:00
9:55 AM,64.4,63.1,96,29.89,7.0,ESE,5.8,-,0.06,Rain,Light Rain,110,2013-05-06 13:55:00
10:15 AM,65.7,64.4,96,29.89,7.0,East,5.8,-,0.01,,Overcast,90,2013-05-06 14:15:00
10:35 AM,67.5,64.4,90,29.90,10.0,SSW,8.1,-,0.01,,Overcast,210,2013-05-06 14:35:00
10:55 AM,63.9,62.8,96,29.91,3.0,South,6.9,-,0.07,Rain,Heavy Rain,180,2013-05-06 14:55:00
11:15 AM,63.5,62.6,97,29.91,4.0,South,4.6,-,0.08,Rain,Heavy Rain,170,2013-05-06 15:15:00
11:35 AM,63.7,63.3,99,29.90,7.0,Calm,Calm,-,0.11,Rain,Light Rain,0,2013-05-06 15:35:00
11:55 AM,64.8,63.5,96,29.90,10.0,Calm,Calm,-,0.11,,Overcast,0,2013-05-06 15:55:00
12:15 PM,66.9,63.1,88,29.90,10.0,SSW,3.5,-,N/A,Rain,Light Rain,210,2013-05-06 16:15:00
12:35 PM,68.0,63.3,85,29.89,10.0,South,3.5,-,N/A,,Overcast,190,2013-05-06 16:35:00
12:55 PM,69.6,64.4,83,29.89,10.0,SE,5.8,-,N/A,,Overcast,140,2013-05-06 16:55:00
1:15 PM,68.9,61.5,77,29.88,10.0,SE,6.9,-,N/A,,Overcast,130,2013-05-06 17:15:00
1:35 PM,70.2,61.9,75,29.87,10.0,SE,6.9,-,N/A,,Mostly Cloudy,130,2013-05-06 17:35:00
1:55 PM,72.0,62.1,71,29.87,10.0,SE,3.5,-,N/A,,Scattered Clouds,140,2013-05-06 17:55:00
2:15 PM,74.3,58.8,58,29.86,10.0,South,8.1,-,N/A,,Scattered Clouds,170,2013-05-06 18:15:00
2:35 PM,75.2,54.9,49,29.86,10.0,WSW,9.2,-,N/A,,Clear,240,2013-05-06 18:35:00
2:55 PM,76.3,55.8,49,29.86,10.0,South,10.4,-,N/A,,Scattered Clouds,180,2013-05-06 18:55:00
3:15 PM,75.2,56.7,52,29.86,10.0,South,6.9,-,N/A,,Scattered Clouds,180,2013-05-06 19:15:00
3:35 PM,75.4,56.5,52,29.85,10.0,SSE,6.9,-,N/A,,Mostly Cloudy,160,2013-05-06 19:35:00
3:55 PM,75.6,56.8,52,29.84,10.0,SSE,8.1,-,N/A,,Overcast,160,2013-05-06 19:55:00
4:15 PM,75.2,56.5,52,29.83,10.0,SSE,6.9,-,N/A,,Overcast,160,2013-05-06 20:15:00
4:35 PM,75.7,57.4,53,29.83,10.0,South,8.1,-,N/A,,Mostly Cloudy,190,2013-05-06 20:35:00
4:55 PM,77.0,50.5,39,29.83,10.0,South,10.4,19.6,N/A,,Scattered Clouds,180,2013-05-06 20:55:00
5:15 PM,77.0,51.3,40,29.83,10.0,SSE,15.0,20.7,N/A,,Clear,160,2013-05-06 21:15:00
5:35 PM,76.1,50.0,40,29.84,10.0,South,9.2,-,N/A,,Clear,180,2013-05-06 21:35:00
5:55 PM,75.2,50.7,42,29.84,10.0,South,10.4,-,N/A,,Clear,180,2013-05-06 21:55:00
6:15 PM,74.3,51.4,45,29.84,10.0,SSE,11.5,18.4,N/A,,Clear,160,2013-05-06 22:15:00
6:35 PM,73.4,52.7,48,29.84,10.0,SSE,11.5,18.4,N/A,,Clear,160,2013-05-06 22:35:00
6:55 PM,72.1,52.9,51,29.84,10.0,SSE,12.7,19.6,N/A,,Clear,150,2013-05-06 22:55:00
7:15 PM,71.2,53.2,53,29.84,10.0,SE,11.5,-,N/A,,Clear,140,2013-05-06 23:15:00
7:35 PM,69.8,53.2,56,29.84,10.0,SE,11.5,-,N/A,,Clear,140,2013-05-06 23:35:00
7:55 PM,68.9,53.1,57,29.85,10.0,SE,9.2,-,N/A,,Clear,130,2013-05-06 23:55:00
8:15 PM,67.1,52.7,60,29.86,10.0,SE,6.9,-,N/A,,Clear,140,2013-05-07 00:15:00
8:35 PM,66.2,52.9,62,29.87,10.0,South,4.6,-,N/A,,Clear,170,2013-05-07 00:35:00
8:55 PM,64.6,48.0,55,29.87,10.0,South,6.9,-,N/A,,Clear,170,2013-05-07 00:55:00
9:15 PM,63.5,48.7,59,29.88,10.0,South,5.8,-,N/A,,Clear,170,2013-05-07 01:15:00
9:35 PM,62.8,50.9,65,29.88,10.0,South,5.8,-,N/A,,Clear,170,2013-05-07 01:35:00
9:55 PM,61.9,52.5,71,29.89,10.0,South,3.5,-,N/A,,Clear,170,2013-05-07 01:55:00
10:15 PM,61.0,53.4,76,29.90,10.0,SSE,5.8,-,N/A,,Clear,150,2013-05-07 02:15:00
10:35 PM,60.4,53.8,79,29.90,10.0,SSE,3.5,-,N/A,,Clear,160,2013-05-07 02:35:00
11:15 PM,58.8,54.0,84,29.90,10.0,Calm,Calm,-,N/A,,Clear,0,2013-05-07 03:15:00
11:35 PM,58.8,54.3,85,29.90,10.0,SSE,3.5,-,N/A,,Clear,150,2013-05-07 03:35:00
11:55 PM,57.7,54.5,89,29.90,10.0,Calm,Calm,-,N/A,,Clear,0,2013-05-07 03:55:00